Date String (YYYY-MM-DD hh:mm:ss) UTC,Instrument flags,Ambient pressure (hPa),Sample flow (lpm),Bypass flow (lpm),Sample temperature (°C),Ambient temperature (°C),ASC tube jacket temperature (°C),LED temperature (°C),Box temperature (°C),Sample RH (%),Span deviation,Mass concentration (μg/m³),Mass concentration (μg/m³),Mass concentration (μg/m³)
DateTimeUTC,F1_M11,P_M11,Q1_M11,Q2_M11,T1_M11,T2_M11,T3_M11,T4_M11,T5_M11,U1_M11,ZSPAN_M11,X0_M11,X2_M11,X1_M11
2022-04-18 14:00:00,,0833.7,5.00,0.00,23.5,22.5,00.0,32.4,25.2,10.1,0000.0,0014.77,0003.47,0001.86
2022-04-18 14:01:00,,0833.7,5.00,0.00,23.5,22.5,00.0,32.4,25.2,10.1,0000.0,0015.86,0003.47,0001.88
2022-04-18 14:02:00,,0833.6,5.00,0.00,23.5,22.5,00.0,32.4,25.2,10.1,0000.0,0015.51,0003.44,0001.88
2022-04-18 14:03:00,,0833.6,5.01,0.00,23.5,22.5,00.0,32.4,25.2,10.1,0000.0,0015.54,0003.48,0001.87
2022-04-18 14:04:00,,0833.7,5.00,0.00,23.5,22.5,00.0,32.4,25.2,10.1,0000.0,0015.96,0003.55,0001.87
2022-04-18 14:05:00,,0833.7,4.99,0.00,23.5,22.5,00.0,32.4,25.2,10.1,0000.0,0015.87,0003.61,0001.87
2022-04-18 14:06:00,,0833.7,5.00,0.00,23.5,22.5,00.0,32.4,25.2,10.2,0000.0,0015.39,0003.64,0001.88
2022-04-18 14:07:00,,0833.6,5.00,0.00,23.5,22.6,00.0,32.4,25.3,10.2,0000.0,0014.90,0003.63,0001.90
2022-04-18 14:08:00,,0833.6,4.99,0.00,23.5,22.6,00.0,32.4,25.3,10.3,0000.0,0015.35,0003.60,0001.90
2022-04-18 14:09:00,,0833.7,5.00,0.00,23.5,22.5,00.0,32.4,25.3,10.2,0000.0,0015.18,0003.58,0001.91
2022-04-18 14:10:00,,0833.6,5.02,0.00,23.5,22.5,00.0,32.4,25.3,10.2,0000.0,0014.59,0003.62,0001.93
2022-04-18 14:11:00,,0833.6,4.99,0.00,23.5,22.5,00.0,32.4,25.3,10.1,0000.0,0013.98,0003.68,0001.94
2022-04-18 14:12:00,,0833.6,5.01,0.00,23.5,22.5,00.0,32.4,25.3,10.2,0000.0,0012.93,0003.72,0001.94
2022-04-18 14:13:00,,0833.6,5.00,0.00,23.5,22.6,00.0,32.4,25.3,10.3,0000.0,0012.93,0003.81,0001.94
2022-04-18 14:14:00,,0833.7,5.00,0.00,23.5,22.5,00.0,32.4,25.3,10.3,0000.0,0013.66,0003.82,0001.94
2022-04-18 14:15:00,,0833.8,4.99,0.00,23.5,22.5,00.0,32.4,25.3,10.2,0000.0,0013.50,0003.76,0001.93
2022-04-18 14:16:00,,0833.8,5.00,0.00,23.5,22.5,00.0,32.4,25.3,10.2,0000.0,0013.54,0003.72,0001.94
2022-04-18 14:17:00,,0833.7,5.00,0.00,23.5,22.6,00.0,32.4,25.3,10.2,0000.0,0013.72,0003.77,0001.94
2022-04-18 14:18:00,,0833.7,5.00,0.00,23.5,22.6,00.0,32.4,25.3,10.2,0000.0,0013.38,0003.82,0001.93
2022-04-18 14:19:00,,0833.7,5.00,0.00,23.5,22.6,00.0,32.4,25.3,10.2,0000.0,0013.09,0003.78,0001.91
2022-04-18 14:20:00,,0833.7,5.00,0.00,23.5,22.6,00.0,32.4,25.3,10.2,0000.0,0013.10,0003.79,0001.91
2022-04-18 14:21:00,,0833.7,5.00,0.00,23.5,22.6,00.0,32.5,25.3,10.1,0000.0,0013.05,0003.82,0001.90
2022-04-18 14:22:00,,0833.7,5.01,0.00,23.5,22.6,00.0,32.5,25.3,10.1,0000.0,0013.37,0003.85,0001.89
2022-04-18 14:23:00,,0833.6,4.98,0.00,23.5,22.6,00.0,32.5,25.3,10.1,0000.0,0014.28,0003.96,0001.90
2022-04-18 14:24:00,,0833.7,5.00,0.00,23.6,22.6,00.0,32.5,25.4,10.2,0000.0,0013.94,0003.92,0001.89
2022-04-18 14:25:00,,0833.7,5.01,0.00,23.6,22.6,00.0,32.5,25.4,10.2,0000.0,0013.93,0003.91,0001.89
2022-04-18 14:26:00,,0833.8,5.00,0.00,23.6,22.6,00.0,32.5,25.4,10.1,0000.0,0013.67,0003.90,0001.88
2022-04-18 14:27:00,,0833.8,5.00,0.00,23.6,22.6,00.0,32.5,25.4,10.2,0000.0,0013.85,0003.93,0001.89
2022-04-18 14:28:00,,0833.7,5.00,0.00,23.6,22.6,00.0,32.5,25.4,10.3,0000.0,0015.01,0003.92,0001.90
2022-04-18 14:29:00,,0833.7,5.00,0.00,23.6,22.6,00.0,32.5,25.4,10.0,0000.0,0015.62,0003.94,0001.90
2022-04-18 14:30:00,,0833.7,5.00,0.00,23.6,22.6,00.0,32.5,25.4,10.1,0000.0,0015.30,0004.02,0001.90
2022-04-18 14:31:00,,0833.7,5.00,0.00,23.6,22.6,00.0,32.5,25.3,10.1,0000.0,0015.59,0004.06,0001.88
2022-04-18 14:32:00,,0833.7,5.00,0.00,23.6,22.6,00.0,32.5,25.3,10.1,0000.0,0015.52,0004.03,0001.89
2022-04-18 14:33:00,,0833.7,5.00,0.00,23.6,22.6,00.0,32.5,25.3,10.1,0000.0,0015.25,0004.06,0001.88
2022-04-18 14:34:00,,0833.7,5.00,0.00,23.6,22.5,00.0,32.5,25.3,10.2,0000.0,0014.28,0003.96,0001.87
2022-04-18 14:35:00,,0833.7,5.00,0.00,23.6,22.6,00.0,32.5,25.3,10.1,0000.0,0015.40,0003.95,0001.86
2022-04-18 14:36:00,,0833.8,5.00,0.00,23.5,22.6,00.0,32.5,25.3,10.1,0000.0,0015.35,0003.95,0001.85
2022-04-18 14:37:00,,0833.8,5.01,0.00,23.5,22.5,00.0,32.5,25.3,10.2,0000.0,0015.17,0003.93,0001.85
2022-04-18 14:38:00,,0833.8,4.99,0.00,23.5,22.5,00.0,32.5,25.3,10.2,0000.0,0014.92,0003.95,0001.86
2022-04-18 14:39:00,,0833.7,5.01,0.00,23.5,22.5,00.0,32.5,25.3,10.3,0000.0,0014.55,0003.96,0001.85
2022-04-18 14:40:00,,0833.7,4.98,0.00,23.5,22.5,00.0,32.5,25.3,10.3,0000.0,0014.84,0003.96,0001.85
2022-04-18 14:41:00,,0833.6,5.00,0.00,23.5,22.5,00.0,32.5,25.2,10.1,0000.0,0015.36,0003.95,0001.86
2022-04-18 14:42:00,,0833.6,5.00,0.00,23.4,22.4,00.0,32.4,25.2,10.1,0000.0,0015.22,0003.95,0001.88
2022-04-18 14:43:00,,0833.7,5.01,0.00,23.4,22.4,00.0,32.4,25.1,10.2,0000.0,0015.26,0003.92,0001.88
2022-04-18 14:44:00,,0833.8,4.99,0.00,23.4,22.3,00.0,32.4,25.1,10.3,0000.0,0015.27,0003.90,0001.88
2022-04-18 14:45:00,,0833.8,5.00,0.00,23.4,22.3,00.0,32.4,25.1,10.2,0000.0,0016.06,0003.90,0001.88
2022-04-18 14:46:00,,0833.7,5.00,0.00,23.4,22.3,00.0,32.4,25.1,10.4,0000.0,0015.29,0003.92,0001.87
2022-04-18 14:47:00,,0833.7,5.00,0.00,23.3,22.3,00.0,32.4,25.1,10.1,0000.0,0014.57,0003.93,0001.87
2022-04-18 14:48:00,,0833.7,5.00,0.00,23.3,22.3,00.0,32.3,25.1,10.2,0000.0,0013.83,0003.93,0001.86
2022-04-18 14:49:00,,0833.7,5.01,0.00,23.3,22.3,00.0,32.3,25.0,10.1,0000.0,0013.21,0003.86,0001.85
2022-04-18 14:50:00,,0833.7,5.00,0.00,23.3,22.3,00.0,32.3,25.0,10.2,0000.0,0012.27,0003.79,0001.83
2022-04-18 14:51:00,,0833.7,5.00,0.00,23.3,22.3,00.0,32.3,25.1,10.2,0000.0,0011.59,0003.77,0001.82
2022-04-18 14:52:00,,0833.7,5.00,0.00,23.3,22.4,00.0,32.3,25.1,10.0,0000.0,0010.95,0003.72,0001.82
2022-04-18 14:53:00,,0833.7,5.00,0.00,23.3,22.4,00.0,32.3,25.1,10.1,0000.0,0010.63,0003.67,0001.80
2022-04-18 14:54:00,,0833.7,4.98,0.00,23.3,22.4,00.0,32.3,25.1,10.1,0000.0,0010.82,0003.68,0001.80
2022-04-18 14:55:00,,0833.6,5.00,0.00,23.3,22.4,00.0,32.3,25.1,10.0,0000.0,0011.23,0003.66,0001.79
2022-04-18 14:56:00,,0833.6,5.01,0.00,23.3,22.3,00.0,32.3,25.0,10.1,0000.0,0010.61,0003.64,0001.81
2022-04-18 14:57:00,,0833.6,5.00,0.00,23.3,22.3,00.0,32.3,25.1,10.2,0000.0,0010.60,0003.59,0001.83
2022-04-18 14:58:00,,0833.6,4.98,0.00,23.3,22.4,00.0,32.3,25.1,10.2,0000.0,0011.93,0003.59,0001.84
2022-04-18 14:59:00,,0833.6,5.01,0.00,23.3,22.4,00.0,32.3,25.1,10.2,0000.0,0012.90,0003.60,0001.85
